Location: MAS Eagle Lake Observatory
(44.8103°N, 93.9397°W)
Time: 18:53:33
(UTC-05:00)

Envisat - Visible Passes

Search period start: 23 June 2018 00:00
Search period end: 03 July 2018 00:00
Orbit: 764 x 766 km, 98.2° (Epoch: 23 June)

Date Brightness Start Highest point End Pass type
(mag) Time Alt. Az. Time Alt. Az. Time Alt. Az.
23 Jun 5.6 21:52:35 10° SW 21:55:34 16° W 21:58:33 10° NW visible
26 Jun 5.5 21:40:40 10° SW 21:44:17 19° W 21:47:55 10° NW visible
28 Jun 5.9 22:08:50 10° WSW 22:10:11 11° W 22:11:32 10° WNW visible
01 Jul 5.7 21:56:13 10° WSW 21:58:52 14° W 22:01:32 10° WNW visible
